Simultaneous Nadir Overpasses (SNOs) Predictions

Prediction of SNOs between GOES-14 and AQUA Satellite Orbit:

Table of predicted SNOs for the next 14.0 days since TLE Epoch: 3/5/2022
Index Date Time (GOES-14) GOES-14 Lat,Lon AQUA Lat,Lon Distance(km) Time Diff (sec)
1 03/05/2022 08:29:18 0.08,-104.60 -0.32,-102.81 203.76 80
2 03/05/2022 20:50:40 -0.08,-104.43 -0.83,-107.99 404.79 80
3 03/07/2022 20:38:23 -0.08,-104.43 -0.23,-105.00 65.12 80
4 03/09/2022 20:23:27 -0.08,-104.43 0.45,-102.02 274.55 80
5 03/10/2022 08:44:41 0.08,-104.60 0.65,-107.17 292.77 80
6 03/12/2022 08:35:04 0.09,-104.60 0.02,-104.18 47.33 80
7 03/14/2022 08:22:47 0.10,-104.61 -0.63,-101.20 387.58 80
8 03/14/2022 20:44:09 -0.10,-104.46 -0.51,-106.37 217.81 80
9 03/16/2022 20:29:12 -0.10,-104.46 0.15,-103.39 122.07 80
10 03/17/2022 08:50:26 0.10,-104.59 0.94,-108.54 449.07 80
11 03/18/2022 20:16:54 -0.10,-104.46 0.76,-100.40 462.19 80
